Location: Arrodets-la-Barthe
(43.0306°N, 0.2829°E)
Time: 17:49:57
(UTC+00:00)

STRAND 1 - Pass Details

Date: 09 April 2023
Orbit: 767 x 779 km, 98.4° (Epoch: 04 June)

Event Time Altitude Azimuth Distance (km) Brightness Sun altitude
Rises 20:36:57 0° 353° (N) 3,247 ? -21.4°
Reaches altitude 10° 20:40:57 10° 322° (NW) 2,315 ? -22.0°
Maximum altitude 20:42:34 12° 303° (WNW) 2,208 ? -22.3°
Drops below altitude 10° 20:44:11 10° 284° (WNW) 2,311 ? -22.5°
Sets 20:48:11 0° 253° (WSW) 3,233 ? -23.1°
